Home   Weather   Manassas   Past weeks
Flag for USA

Past Weather in Manassas, Virginia, USA — Yesterday and Last 2 Weeks

Now
28 °F

Clear.


Feels Like: 28 °F
Forecast: 54 / 28 °F
Wind: No wind

Location: Manassas Municipal

Current Time: Mar 20, 2019 at 2:09:23 am

Latest Report: Mar 20, 2019 at 12:56 am


Visibility: 10 mi

Pressure: 30.45 "Hg

Humidity: 93%

Dew Point: 26 °F

Location of ManassasLocation

Past Weather in Manassas — Graph

°F

Manassas Temperature Yesterday

Maximum temperature yesterday: 52 °F (at 3:56 pm)
Minimum temperature yesterday: 21 °F (at 5:56 am)
Average temperature yesterday: 35 °F

High & Low Weather Summary for the Past Weeks

 TemperatureHumidityPressure
High76 °F (Mar 15, 1:56 pm)100% (Mar 10, 5:35 am)30.53 "Hg (Mar 10, 5:35 am)
Low18 °F (Mar 7, 2:56 am)22% (Mar 11, 2:56 pm)29.73 "Hg (Mar 15, 5:56 pm)
Average42 °F62%30.23 "Hg
* Reported Mar 4 11:56 pm — Mar 20 12:56 am, Manassas. Weather by CustomWeather, © 2019

Note: Actual official high and low records may vary slightly from our data, if they occured in-between our weather recording intervals... More about our weather records

Advertising

Manassas Weather History for the Previous 24 Hours

Scroll right to see more
 ConditionsComfort  
Time TempWeatherWind HumidityBarometerVisibility
12:56 am
Wed, Mar 20
28 °FClear.No wind93%30.45 "Hg10 mi
11:56 pm
Tue, Mar 19
30 °FClear.No wind79%30.45 "Hg10 mi
10:56 pm33 °FClear.No wind72%30.45 "Hg10 mi
9:56 pm34 °FClear.No wind70%30.45 "Hg10 mi
8:56 pm37 °FClear.No wind60%30.44 "Hg10 mi
7:56 pm42 °FClear.3 mph45%30.43 "Hg10 mi
6:56 pm48 °FSunny.No wind32%30.42 "Hg10 mi
5:56 pm51 °FPassing clouds.5 mph28%30.42 "Hg10 mi
4:56 pm50 °FSunny.No wind28%30.42 "Hg10 mi
3:56 pm52 °FSunny.9 mph27%30.44 "Hg10 mi
2:56 pm51 °FSunny.6 mph27%30.47 "Hg10 mi
1:56 pm50 °FPassing clouds.8 mph29%30.49 "Hg10 mi
12:56 pm47 °FSunny.No wind30%30.50 "Hg10 mi
11:56 am46 °FSunny.No wind30%30.53 "Hg10 mi
10:56 am44 °FSunny.N/A37%30.53 "Hg10 mi
10:39 am43 °FPassing clouds.No wind39%30.50 "Hg10 mi
9:56 am39 °FSunny.No wind65%30.53 "Hg10 mi
8:56 am32 °FSunny.No wind85%30.51 "Hg10 mi
7:56 am24 °FSunny.3 mph88%30.50 "Hg10 mi
6:56 am21 °FClear.No wind88%30.48 "Hg10 mi
5:56 am21 °FIce fog.No wind88%30.47 "Hg3 mi
5:43 am21 °FClear.No wind86%30.42 "Hg10 mi
5:35 am21 °FIce fog.No wind86%30.42 "Hg2 mi
4:56 am22 °FClear.No wind89%30.44 "Hg10 mi
3:56 am22 °FClear.No wind89%30.44 "Hg10 mi
2:56 am23 °FClear.No wind88%30.44 "Hg10 mi
Weather by CustomWeather, © 2019

See weather overview